Weather History for KRWF - March, 2014

Change the Weather History Date:

Sunday, March 9, 2014

  Actual Average Record
Temperature  
Mean Temperature 32 °F -  
Max Temperature 46 °F 35 °F 59 °F (2015)
Min Temperature 18 °F 19 °F -16 °F (1951)
Degree Days  
Heating Degree Days 33    
Moisture  
Dew Point 27 °F    
Average Humidity 72    
Maximum Humidity 83    
Minimum Humidity 63    
Precipitation  
Precipitation 0.00 in - - ()
Sea Level Pressure  
Sea Level Pressure 29.83 in    
Wind  
Wind Speed 12 mph (SW)    
Max Wind Speed 21 mph    
Max Gust Speed 26 mph    
Visibility 10 miles    
Events      
Averages and records for this station are not official NWS values.
T = Trace of Precipitation, MM = Missing Value Source: NWS Daily Summary

Daily Weather History Graph

Daily Weather History Graph

Search for Another Location

Airport or City:

Trip Planner

Search our weather history database for the weather conditions in past years. The results will help you decide how hot, cold, wet, or windy it might be!

Date:

Astronomy

Mar. 09, 2014 Rise Set
Actual Time 7:43 AM CDT 7:18 PM CDT
Civil Twilight 7:14 AM CDT 7:47 PM CDT
Nautical Twilight 6:40 AM CDT 8:21 PM CDT
Astronomical Twilight 6:06 AM CDT 8:55 PM CDT
Moon 1:02 PM CDT (3/9) 3:20 AM CDT (3/9)
Length of Visible Light 12h 33m
Length of Day
11h 35m
First Quarter, 61% of the Moon is Illuminated
Mar 9
First Quarter
Mar 16
Full
Mar 23
Last Quarter
Mar 30
New
Apr 7
First Quarter

Hourly Weather History & Observations

Time (CDT) Temp. Windchill Dew Point Humidity Pressure Visibility Wind Dir Wind Speed Gust Speed Precip Events Conditions
12:53 AM 18.0 °F 4.8 °F 12.9 °F 81% 30.14 in 10.0 mi South 12.7 mph - N/A   Clear
1:53 AM 19.9 °F 6.7 °F 14.0 °F 78% 30.12 in 10.0 mi South 13.8 mph - N/A   Clear
3:53 AM 21.9 °F 8.7 °F 15.1 °F 75% 30.05 in 10.0 mi South 15.0 mph - N/A   Clear
4:53 AM 23.0 °F 13.1 °F 16.0 °F 74% 30.01 in 10.0 mi South 9.2 mph - N/A   Clear
5:53 AM 25.0 °F 15.5 °F 18.0 °F 75% 29.99 in 10.0 mi South 9.2 mph - N/A   Clear
6:53 AM 27.0 °F 15.6 °F 19.9 °F 75% 29.94 in 10.0 mi South 13.8 mph - N/A   Clear
7:53 AM 30.0 °F 18.3 °F 21.9 °F 72% 29.90 in 10.0 mi SSW 17.3 mph - N/A   Clear
8:53 AM 32.0 °F 20.1 °F 24.1 °F 73% 29.87 in 10.0 mi SSW 19.6 mph 26.5 mph N/A   Clear
9:53 AM 34.0 °F 22.4 °F 26.1 °F 73% 29.83 in 10.0 mi SW 20.7 mph - N/A   Clear
10:53 AM 37.0 °F 26.4 °F 28.9 °F 73% 29.79 in 10.0 mi SW 20.7 mph - N/A   Clear
11:53 AM 37.9 °F 29.6 °F 30.0 °F 73% 29.79 in 10.0 mi SW 13.8 mph - N/A   Clear
12:53 PM 39.9 °F 33.4 °F 30.9 °F 70% 29.78 in 10.0 mi SW 10.4 mph - N/A   Clear
1:53 PM 42.1 °F 34.5 °F 32.0 °F 67% 29.75 in 10.0 mi WSW 15.0 mph - N/A   Clear
2:53 PM 44.1 °F 38.6 °F 33.1 °F 65% 29.73 in 10.0 mi WSW 10.4 mph - N/A   Clear
3:53 PM 45.0 °F 39.7 °F 33.1 °F 63% 29.72 in 10.0 mi West 10.4 mph - N/A   Clear
4:53 PM 45.0 °F 40.6 °F 34.0 °F 65% 29.72 in 10.0 mi West 8.1 mph - N/A   Clear
5:53 PM 46.0 °F 39.9 °F 34.0 °F 63% 29.72 in 10.0 mi West 13.8 mph - N/A   Clear
6:53 PM 44.1 °F 40.1 °F 34.0 °F 68% 29.73 in 10.0 mi West 6.9 mph - N/A   Clear
7:53 PM 43.0 °F 39.5 °F 34.0 °F 71% 29.74 in 10.0 mi WSW 5.8 mph - N/A   Clear
8:53 PM 39.9 °F 36.7 °F 33.1 °F 77% 29.73 in 10.0 mi SW 4.6 mph - N/A   Clear
9:53 PM 37.9 °F 31.5 °F 33.1 °F 83% 29.71 in 10.0 mi SW 9.2 mph - N/A   Mostly Cloudy
10:53 PM 39.9 °F 33.9 °F 34.0 °F 79% 29.70 in 10.0 mi SW 9.2 mph - N/A   Partly Cloudy
11:53 PM 44.1 °F 41.5 °F 34.0 °F 68% 29.69 in 10.0 mi West 4.6 mph - N/A   Clear
12:53 AM 39.0 °F 34.0 °F 33.1 °F 79% 29.68 in 10.0 mi SW 6.9 mph - N/A   Clear